星链-11563 (STARLINK-11563)

导读

STARLINK-11563是美国太空探索技术公司SpaceX星链卫星互联网项目的组网卫星,于2025年2月21日发射入轨。星链系统旨在为全球提供高速低延迟互联网服务,该卫星加入后,进一步扩充了星链星座的规模,推动全球卫星互联网覆盖网络的完善。

Basic Information
目录编号:
63053
目录名称:
STARLINK-11563
国际标识:
2025-035B
轨道中心:
EARTH
卫星名称:
星链-11563
卫星全名:
星链-11563 (STARLINK-11563)
卫星状态:
在轨 (已飞行561 天)
发射日期:
2025-02-21 UTC
国别 :
美国 (US)
星等 :
--
Orbit Information
数据来源 国际轨道数据
星历时间: 2026-09-04T18:18:49+0800
23小时前
查看轨道信息
半长轴: 6734.46km
偏心率: 0.0002751
轨道倾角: 43.000°
近地点辐角 278.560°
升交点赤经 17.816°
平近点角 81.496°
近地点: 354.47km
远地点: 358.176km
周期: 91.667分钟
每日圈数: 15.709003
Detailed Information
固有亮度:
5
最大亮度:
2.5
卫星平台:
Starlink V1.0
覆盖范围:
全球
运营商:
太空探索技术公司
运营商所在国:
美国
制造商(研发单位):
太空探索技术公司
制造商所在国:
美国
使用方式:
暂无
Satellite Introduction
Starlink 计划是 SpaceX 推出的全球卫星互联网项目,通过发射低轨道卫星,为全球尤其是偏远地区提供高速、低延迟的互联网服务。自 2019 年起,Starlink 已部署数千颗卫星,旨在缩小全球数字鸿沟,推动互联网普及。该项目还为军事、航空等行业提供通信支持,带来广泛经济效益。
2D Orbit Map
3D Orbit Map
Orbit Altitude Analysis Chart
Orbit Inclination Analysis Chart
Orbit Comprehensive Analysis Chart
View Comprehensive Chart
Conjunction Data List
Event ID Objects TCA Miss Dist (km) Collision Risk Probability Collision Risk Index (CRI) Action
CDM_260906-203406-305306-318521
2026-09-06T
20:34:50+0000
1.595 km
极远距离
2.656516E-6 低风险 0.43
CDM_260906-225206-305306-318521
2026-09-06T
22:52:06+0000
2.129 km
极远距离
1.254741E-6 低风险 0.37